Regional Weather Roundup
Issued by NWS

Home | Current Version | Previous Version | Text Only | Print | Product List | Glossary On
Versions: 1 2 3 4 5 6 7 8 9 10 11 12 13 14 15 16 17 18 19 20 21 22 23 24 25 26 27 28 29 30 31 32 33 34 35 36 37 38 39 40 41 42 43 44 45 46 47 48 49 50
000
ASUS43 KOAX 240510
RWRNE

WEATHER ROUNDUP FOR NEBRASKA
NATIONAL WEATHER SERVICE OMAHA NE
1200 AM CDT FRI OCT 24 2014

NOTES: SATELLITE DATA IS BEING USED TO AUGMENT CLOUD COVER ABOVE
       12000 FEET.
       "FAIR" INDICATES FEW OR NO CLOUDS BELOW 12,000 FEET WITH NO
       SIGNIFICANT WEATHER AND/OR OBSTRUCTIONS TO VISIBILITY.

  * THESE STATIONS DO NOT REPORT WEATHER SUCH AS RAIN...SNOW OR FOG.

NEZ001>004-019>022-054>056-240600-
NEBRASKA PANHANDLE

CITY           SKY/WX    TMP DP  RH WIND       PRES   REMARKS
SCOTTSBLUFF    MOCLDY    46  36  68 E3        30.02S
ALLIANCE       PTCLDY    44  32  62 W8        30.00S
CHADRON        PTCLDY    43  34  70 CALM      29.94F
KIMBALL        PTCLDY    44  33  65 CALM      30.08S
SIDNEY         PTCLDY    44  34  67 W7        30.06S
$$

NEZ057>060-069>072-079>082-240600-
SOUTHWEST NEBRASKA

CITY           SKY/WX    TMP DP  RH WIND       PRES   REMARKS
NORTH PLATTE   PTCLDY    53  49  86 W3        29.99S
IMPERIAL       PTCLDY    52  44  74 SW7       30.03R
LEXINGTON      PTCLDY    60  56  87 SW8       30.00S
MCCOOK         PTCLDY    59  55  87 SW8       30.02F
OGALLALA       CLEAR     43  37  78 CALM      30.02R
$$

NEZ005>010-023>029-035>040-094-240600-
NORTH CENTRAL NEBRASKA

CITY           SKY/WX    TMP DP  RH WIND       PRES   REMARKS
VALENTINE      PTCLDY    45  37  73 SW6       29.91F
AINSWORTH      PTCLDY    56  45  64 SW14      29.92S
BROKEN BOW     PTCLDY    58  53  84 SW6       29.97F
O`NEILL        CLEAR     56  54  91 S7        29.92F
ORD            CLEAR     55  52  89 S5        29.96S
THEDFORD       MOCLDY    58  46  63 SW10      29.96S
$$

NEZ041-046>049-061>064-073>077-083>087-240600-
SOUTH CENTRAL NEBRASKA

CITY           SKY/WX    TMP DP  RH WIND       PRES   REMARKS
GRAND ISLAND   PTCLDY    58  55  90 S9        29.99F
AURORA         PTCLDY    58  56  94 S7        30.00S
HASTINGS       PTCLDY    54  52  93 S6        30.00F FOG
HEBRON         MOCLDY    62  57  84 S9        30.02F
HOLDREGE       CLEAR     55  54  94 CALM      30.02R FOG
KEARNEY *      CLEAR     55  54  94 S10       30.01F
YORK           MOCLDY    57  55  94 S8        30.00F
$$

NEZ011>018-030>034-042>045-240600-
NORTHEAST NEBRASKA

CITY           SKY/WX    TMP DP  RH WIND       PRES   REMARKS
NORFOLK        MOCLDY    57  53  86 S9        29.96F
ALBION         MOCLDY    53  50  92 SE5       29.97F FOG
BLAIR          MOCLDY    56  49  75 S6        30.00F
COLUMBUS *     CLOUDY    50  45  81 CALM      30.00S
FREMONT        CLOUDY    58  49  70 SE7       30.00F
TEKAMAH        MOCLDY    51  47  86 S5        29.99F
WAYNE          MOCLDY    53  48  83 SW5       29.97F
$$

NEZ050>053-065>068-078-088>093-240600-
SOUTHEAST NEBRASKA

CITY           SKY/WX    TMP DP  RH WIND       PRES   REMARKS
LINCOLN        CLOUDY    55  50  83 S5        30.02S
OMAHA EPPLEY   CLOUDY    56  49  77 S8        30.01S
BEATRICE       CLOUDY    58  54  85 S9        30.03S
FALLS CITY     PTCLDY    61  59  93 S9        30.03F
NEBRASKA CITY  MOCLDY    57  52  84 S8        30.03S
PLATTSMOUTH    MOCLDY    58  50  76 S7        30.02S
$$

NEZ044-045-051>053-067-240600-
OMAHA AREA

CITY           SKY/WX    TMP DP  RH WIND       PRES   REMARKS
OMAHA EPPLEY   CLOUDY    56  49  77 S8        30.01S
BLAIR          MOCLDY    56  49  75 S6        30.00F
FREMONT        CLOUDY    58  49  70 SE7       30.00F
MILLARD        MOCLDY    53  50  90 CALM      30.01S
OFFUTT AFB     MOCLDY    52  52 100 E3        30.01S
PLATTSMOUTH    MOCLDY    58  50  76 S7        30.02S
WAHOO          FAIR      53  47  82 S3        30.00S
$$



USA.gov is the U.S. government's official web portal to all federal, state and local government web resources and services.